• In Moldova, Republic
  • List of Countries
  • For 7 days
  • Water Temperature
  • Satellite Maps
  • Weather Map
  • Weather Widgets
  • user-avatar
    Login

    Hourly Weather Lankaran

    Today, 29 May, Monday

    Time Temperature Precipitation Wind Pressure Humidity
    00:00 +12°C° 0 mm 1 mps 634 mmHg 82%
    01:00 +11°C° 0 mm 1 mps 634 mmHg 83%
    02:00 +10°C° 0 mm 1 mps 634 mmHg 84%
    03:00 +10°C° 0 mm 1 mps 634 mmHg 90%
    04:00 +11°C° 0 mm 1 mps 635 mmHg 86%
    05:00 +12°C° 0 mm 1 mps 635 mmHg 82%
    06:00 +14°C° 0 mm 1 mps 636 mmHg 79%
    07:00 +15°C° 0 mm 2 mps 637 mmHg 71%
    08:00 +17°C° 0 mm 2 mps 637 mmHg 62%
    09:00 +19°C° 0 mm 3 mps 638 mmHg 56%
    10:00 +19°C° 0 mm 3 mps 638 mmHg 55%
    11:00 +20°C° 0 mm 3 mps 638 mmHg 55%
    12:00 +20°C° 0 mm 3 mps 638 mmHg 55%
    13:00 +20°C° 0 mm 3 mps 638 mmHg 56%
    14:00 +20°C° 0 mm 3 mps 638 mmHg 57%
    15:00 +20°C° 0 mm 3 mps 638 mmHg 57%
    16:00 +19°C° 0 mm 3 mps 637 mmHg 63%
    17:00 +18°C° 0 mm 3 mps 637 mmHg 69%
    18:00 +16°C° 0 mm 3 mps 637 mmHg 74%
    19:00 +14°C° 0 mm 3 mps 637 mmHg 78%
    20:00 +14°C° 0 mm 2 mps 637 mmHg 82%
    21:00 +13°C° 0 mm 2 mps 637 mmHg 85%
    22:00 +12°C° 0 mm 2 mps 637 mmHg 84%
    23:00 +12°C° 0 mm 2 mps 636 mmHg 84%

    Tomorrow, 30 May, Tuesday

    Time Temperature Precipitation Wind Pressure Humidity
    00:00 +10°C° 0 mm 2 mps 636 mmHg 83%
    01:00 +11°C° 0 mm 1 mps 636 mmHg 82%
    02:00 +10°C° 0 mm 1 mps 636 mmHg 81%
    03:00 +10°C° 0 mm 1 mps 635 mmHg 79%
    04:00 +11°C° 0 mm 1 mps 636 mmHg 74%
    05:00 +13°C° 0 mm 1 mps 636 mmHg 69%
    06:00 +15°C° 0 mm 1 mps 636 mmHg 64%
    07:00 +17°C° 0 mm 2 mps 637 mmHg 58%
    08:00 +19°C° 0 mm 2 mps 637 mmHg 51%
    09:00 +21°C° 0 mm 2 mps 637 mmHg 45%
    10:00 +22°C° 0 mm 3 mps 637 mmHg 43%
    11:00 +24°C° 0 mm 3 mps 637 mmHg 41%
    12:00 +25°C° 0 mm 3 mps 637 mmHg 39%
    13:00 +25°C° 0 mm 3 mps 636 mmHg 40%
    14:00 +25°C° 0 mm 3 mps 636 mmHg 40%
    15:00 +25°C° 0 mm 3 mps 635 mmHg 41%
    16:00 +24°C° 0 mm 3 mps 635 mmHg 47%
    17:00 +23°C° 0 mm 2 mps 634 mmHg 53%
    18:00 +21°C° 0 mm 2 mps 634 mmHg 59%
    19:00 +19°C° 0 mm 2 mps 633 mmHg 64%
    20:00 +18°C° 0 mm 1 mps 633 mmHg 70%
    21:00 +15°C° 0 mm 1 mps 633 mmHg 75%
    22:00 +15°C° 0 mm 1 mps 633 mmHg 75%
    23:00 +14°C° 0 mm 1 mps 633 mmHg 75%

    Day after tomorrow, 31 May, Wednesday

    Time Temperature Precipitation Wind Pressure Humidity
    00:00 +14°C° 0 mm 1 mps 632 mmHg 74%
    01:00 +14°C° 0 mm 1 mps 632 mmHg 73%
    02:00 +13°C° 0 mm 1 mps 632 mmHg 72%
    03:00 +13°C° 0 mm 1 mps 632 mmHg 71%
    04:00 +14°C° 0 mm 1 mps 632 mmHg 67%
    05:00 +16°C° 0 mm 1 mps 633 mmHg 62%
    06:00 +19°C° 0 mm 1 mps 633 mmHg 58%
    07:00 +20°C° 0 mm 1 mps 634 mmHg 51%
    08:00 +21°C° 0 mm 2 mps 634 mmHg 44%
    09:00 +24°C° 0 mm 2 mps 634 mmHg 37%
    10:00 +25°C° 0 mm 3 mps 634 mmHg 36%
    11:00 +25°C° 0 mm 3 mps 634 mmHg 35%
    12:00 +26°C° 0 mm 4 mps 634 mmHg 34%
    13:00 +26°C° 0 mm 4 mps 633 mmHg 36%
    14:00 +26°C° 0 mm 4 mps 633 mmHg 37%
    15:00 +26°C° 0 mm 4 mps 632 mmHg 39%
    16:00 +24°C° 0 mm 3 mps 632 mmHg 46%
    17:00 +22°C° 0 mm 3 mps 631 mmHg 54%
    18:00 +20°C° 0 mm 2 mps 631 mmHg 61%
    19:00 +18°C° 0 mm 2 mps 631 mmHg 65%
    20:00 +16°C° 0 mm 2 mps 631 mmHg 68%
    21:00 +14°C° 0 mm 2 mps 631 mmHg 72%
    22:00 +14°C° 0 mm 2 mps 631 mmHg 71%
    23:00 +13°C° 0 mm 2 mps 630 mmHg 69%

    1 June, Thursday

    Time Temperature Precipitation Wind Pressure Humidity
    00:00 +13°C° 0 mm 2 mps 630 mmHg 68%
    01:00 +12°C° 0 mm 2 mps 630 mmHg 68%
    02:00 +10°C° 0 mm 2 mps 630 mmHg 69%
    03:00 +10°C° 0 mm 2 mps 630 mmHg 69%
    04:00 +12°C° 0 mm 1 mps 631 mmHg 65%
    05:00 +14°C° 0 mm 1 mps 631 mmHg 62%
    06:00 +15°C° 0 mm 1 mps 632 mmHg 58%
    07:00 +18°C° 0 mm 1 mps 632 mmHg 51%
    08:00 +18°C° 0 mm 2 mps 633 mmHg 44%
    09:00 +20°C° 0 mm 2 mps 633 mmHg 37%
    10:00 +21°C° 0 mm 3 mps 633 mmHg 37%
    11:00 +21°C° 0 mm 3 mps 633 mmHg 36%
    12:00 +22°C° 0 mm 3 mps 633 mmHg 36%
    13:00 +22°C° 0 mm 4 mps 633 mmHg 38%
    14:00 +22°C° 0 mm 4 mps 632 mmHg 41%
    15:00 +22°C° 0 mm 4 mps 632 mmHg 43%
    16:00 +20°C° 0 mm 4 mps 632 mmHg 50%
    17:00 +19°C° 0 mm 3 mps 631 mmHg 58%
    18:00 +17°C° 0 mm 3 mps 631 mmHg 65%
    19:00 +15°C° 0 mm 2 mps 631 mmHg 71%
    20:00 +14°C° 0 mm 2 mps 631 mmHg 76%
    21:00 +12°C° 0 mm 1 mps 631 mmHg 82%
    22:00 +11°C° 0 mm 1 mps 631 mmHg 81%
    23:00 +11°C° 0 mm 1 mps 631 mmHg 80%

    2 June, Friday

    Time Temperature Precipitation Wind Pressure Humidity
    00:00 +11°C° 0 mm 1 mps 631 mmHg 79%
    01:00 +10°C° 0 mm 1 mps 631 mmHg 80%
    02:00 +10°C° 0 mm 1 mps 630 mmHg 80%
    03:00 +9°C° 0 mm 1 mps 630 mmHg 80%
    04:00 +11°C° 0 mm 1 mps 631 mmHg 76%
    05:00 +13°C° 0 mm 1 mps 632 mmHg 72%
    06:00 +14°C° 0 mm 1 mps 633 mmHg 68%
    07:00 +15°C° 0 mm 2 mps 633 mmHg 62%
    08:00 +17°C° 0 mm 2 mps 634 mmHg 56%
    09:00 +18°C° 0 mm 2 mps 634 mmHg 50%
    10:00 +19°C° 0 mm 3 mps 634 mmHg 47%
    11:00 +20°C° 0 mm 3 mps 634 mmHg 45%
    12:00 +21°C° 0 mm 3 mps 634 mmHg 42%
    13:00 +21°C° 0 mm 3 mps 634 mmHg 44%
    14:00 +20°C° 0 mm 4 mps 633 mmHg 45%
    15:00 +20°C° 0 mm 4 mps 633 mmHg 47%
    16:00 +19°C° 0 mm 4 mps 633 mmHg 53%
    17:00 +18°C° 0 mm 3 mps 633 mmHg 59%
    18:00 +17°C° 0 mm 3 mps 633 mmHg 65%
    19:00 +14°C° 0 mm 3 mps 633 mmHg 71%
    20:00 +13°C° 0 mm 2 mps 633 mmHg 77%
    21:00 +12°C° 0 mm 2 mps 633 mmHg 82%
    22:00 +10°C° 0 mm 2 mps 633 mmHg 83%
    23:00 +11°C° 0 mm 1 mps 633 mmHg 83%

    3 June, Saturday

    Time Temperature Precipitation Wind Pressure Humidity
    00:00 +10°C° 0 mm 1 mps 633 mmHg 83%
    01:00 +10°C° 0 mm 1 mps 633 mmHg 83%
    02:00 +9°C° 0 mm 1 mps 633 mmHg 84%
    03:00 +9°C° 0 mm 1 mps 633 mmHg 84%
    04:00 +10°C° 0 mm 1 mps 633 mmHg 80%
    05:00 +11°C° 0 mm 1 mps 634 mmHg 77%
    06:00 +13°C° 0 mm 2 mps 635 mmHg 73%
    07:00 +14°C° 0 mm 2 mps 635 mmHg 69%
    08:00 +14°C° 0 mm 3 mps 636 mmHg 64%
    09:00 +17°C° 0 mm 3 mps 636 mmHg 59%
    10:00 +17°C° 0 mm 4 mps 636 mmHg 58%
    11:00 +18°C° 0 mm 4 mps 636 mmHg 57%
    12:00 +18°C° 0 mm 4 mps 636 mmHg 56%
    13:00 +18°C° 0 mm 4 mps 635 mmHg 57%
    14:00 +18°C° 0 mm 4 mps 635 mmHg 58%
    15:00 +18°C° 0 mm 3 mps 635 mmHg 59%
    16:00 +17°C° 0.1 mm 3 mps 635 mmHg 64%
    17:00 +16°C° 0.1 mm 3 mps 635 mmHg 68%
    18:00 +15°C° 0.1 mm 2 mps 634 mmHg 73%
    19:00 +14°C° 0.1 mm 2 mps 634 mmHg 78%
    20:00 +13°C° 0.1 mm 2 mps 634 mmHg 83%
    21:00 +11°C° 0.1 mm 1 mps 634 mmHg 87%
    22:00 +11°C° 0 mm 1 mps 634 mmHg 88%
    23:00 +10°C° 0 mm 1 mps 634 mmHg 88%
    Show more